Location: Marcé
(47.5801°N, 0.3280°W)
Time: 21:37:14
(UTC+01:00)

Transit 2A - Pass Details

Date: 06 December 2021
Orbit: 591 x 967 km, 66.7° (Epoch: 23 January)

Event Time Altitude Azimuth Distance (km) Brightness Sun altitude
Rises 10:37:36 0° 316° (NW) 3,664 8.9 13.6°
Reaches altitude 10° 10:40:45 10° 302° (WNW) 2,705 8.3 13.9°
Maximum altitude 10:45:26 22° 255° (WSW) 1,935 8.0 14.3°
Drops below altitude 10° 10:49:57 10° 207° (SSW) 2,596 9.3 14.7°
Sets 10:52:55 0° 192° (SSW) 3,479 10.2 14.9°
